This is the latest recevied weather packets stored in our database for station/object DG4CB-13. If no packets are shown the sender has not sent any weather packets the latest 10 day(s).
| Time | Temp. | Humidity | Pressure | Rain* | Wind** | Luminosity | Snow |
|---|---|---|---|---|---|---|---|
| 1777467000 | 20° C | 26% | 1023.6 hPa | - | - | - | - |
| 1777466399 | 19.44° C | 25% | 1023.6 hPa | - | - | - | - |
| 1777465799 | 19.44° C | 26% | 1023.5 hPa | - | - | - | - |
| 1777465199 | 18.89° C | 26% | 1023.5 hPa | - | - | - | - |
| 1777464599 | 18.89° C | 26% | 1023.6 hPa | - | - | - | - |
| 1777463999 | 18.89° C | 26% | 1023.5 hPa | - | - | - | - |
| 1777463399 | 18.33° C | 26% | 1023.6 hPa | - | - | - | - |
| 1777462799 | 17.78° C | 26% | 1023.8 hPa | - | - | - | - |
| 1777462199 | 18.33° C | 26% | 1023.5 hPa | - | - | - | - |
| 1777461599 | 18.33° C | 28% | 1023.5 hPa | - | - | - | - |
| 1777460999 | 17.78° C | 26% | 1023.6 hPa | - | - | - | - |
| 1777460400 | 18.33° C | 27% | 1023.7 hPa | - | - | - | - |
| 1777459799 | 17.78° C | 28% | 1023.8 hPa | - | - | - | - |
| 1777459199 | 17.78° C | 28% | 1024 hPa | - | - | - | - |
| 1777458600 | 17.78° C | 30% | 1024 hPa | - | - | - | - |
| 1777458000 | 17.22° C | 31% | 1023.8 hPa | - | - | - | - |
| 1777457399 | 17.22° C | 31% | 1023.9 hPa | - | - | - | - |
| 1777456799 | 16.67° C | 31% | 1024 hPa | - | - | - | - |
| 1777456199 | 16.11° C | 31% | 1023.9 hPa | - | - | - | - |
| 1777455599 | 15.56° C | 32% | 1023.9 hPa | - | - | - | - |
| 1777454999 | 15° C | 33% | 1024 hPa | - | - | - | - |
| 1777454399 | 14.44° C | 34% | 1024.1 hPa | - | - | - | - |
| 1777453799 | 14.44° C | 34% | 1024.2 hPa | - | - | - | - |
| 1777453200 | 14.44° C | 34% | 1024.2 hPa | - | - | - | - |
| 1777452600 | 13.89° C | 34% | 1024.1 hPa | - | - | - | - |
* Rain since midnight (hover to see other rain measurements)
** Current wind speed in m/s (hover to see current wind gust speed)